Temperature
20 20 20 19 18 18 19 20 20 20 20 20 20 19 18 18 18 17 17 17 17 17 17 17 17 17 17 17 17 17 17 17 17 17 17 17 17 17 17 17 17 17 17 17 17 17 17 17 17
20 20 20 19 18 18 19 19 19 20 20 20 20 19 18 17 17 17 17 17 17 17 17 17 17 17 17 17 17 17 17 17 17 17 17 17 17 17 17 17 17 17 17 17 17 17 17 17 17
20 20 20 17 18 18 19 19 20 21 21 21 19 18 18 17 17 17 17 17 17 17 17 17 17 17 17 17 17 17 17 17 17 17 16 16 16 16 16 16 17 17 17 17 17 17 17 17 17
20 20 20 18 19 19 19 19 20 21 21 20 19 17 17 17 17 17 17 17 17 17 17 17 17 17 17 17 17 17 17 17 17 17 16 16 16 16 16 16 17 17 17 17 17 17 17 17 17
20 20 18 18 19 20 19 20 20 20 20 19 18 17 17 17 17 17 17 17 17 17 17 17 17 17 17 17 17 17 16 16 16 16 16 16 16 16 16 16 16 16 16 17 17 17 17 17 17
21 19 18 18 19 20 19 20 20 19 19 19 18 17 16 17 17 17 17 17 17 17 17 17 17 17 17 17 17 16 16 16 16 16 16 16 16 16 16 16 16 16 16 16 16 16 16 17 17
20 17 18 19 19 19 20 21 20 19 19 19 18 17 16 17 17 17 17 17 17 17 17 17 17 17 17 16 16 16 16 16 16 16 16 16 16 16 16 16 16 16 16 16 16 16 16 16 16
21 17 18 18 19 19 20 20 20 20 19 19 19 17 17 17 17 17 17 17 17 17 17 17 17 17 16 16 16 16 16 16 16 16 16 16 16 16 16 16 16 16 16 16 16 16 16 16 16
21 17 18 19 19 19 20 20 20 20 19 19 18 18 18 17 17 17 17 17 16 16 17 17 17 16 16 16 16 16 16 16 16 16 16 16 16 16 16 16 16 16 16 16 16 16 16 16 16
20 17 19 20 20 19 20 20 20 19 18 18 18 18 18 17 17 17 17 17 17 16 16 16 16 16 16 16 16 16 16 16 16 16 16 16 16 16 16 16 16 16 16 16 16 16 16 16 16
20 19 19 20 21 21 20 20 20 19 18 18 18 18 17 17 17 17 17 17 17 17 17 16 16 16 16 16 16 16 16 16 16 16 16 16 16 16 16 16 16 16 16 16 16 16 16 16 16
20 20 20 20 21 21 20 20 20 19 19 19 19 19 18 17 17 17 17 17 17 17 17 17 16 16 16 16 16 16 16 16 16 16 16 16 16 16 16 16 16 16 16 15 15 15 16 16 15
20 20 20 21 21 21 20 20 19 19 19 19 19 18 18 18 17 17 17 17 17 17 17 16 16 16 16 16 16 16 16 16 16 16 16 16 16 16 16 16 16 16 15 15 15 15 15 15 15
21 20 20 21 21 21 20 19 19 18 19 19 18 18 18 18 18 17 17 17 17 17 17 17 16 16 16 16 16 16 16 16 16 16 16 16 16 16 16 16 16 15 15 15 15 15 15 15 15
21 20 20 20 20 20 20 19 18 19 19 18 18 18 18 18 18 18 17 17 17 17 17 17 16 16 16 16 16 16 16 16 16 16 16 16 16 16 16 15 15 15 15 15 15 15 15 15 15
20 19 19 20 20 20 19 18 18 19 19 18 18 18 18 18 18 18 18 17 17 17 17 17 16 16 16 16 16 16 16 16 16 16 16 16 16 16 16 15 15 15 15 15 15 15 15 15 15
19 18 19 19 20 20 19 18 18 19 18 18 18 18 18 18 18 18 18 17 17 17 17 17 16 16 16 16 16 16 16 16 16 16 16 16 16 16 15 15 15 15 15 15 15 15 15 15 15
19 19 19 19 20 20 19 18 18 19 19 18 18 18 18 18 18 18 18 17 17 17 17 17 16 16 16 16 16 16 16 16 16 16 16 16 16 16 15 15 15 15 15 15 15 15 15 15 15
20 20 19 19 20 20 19 18 18 18 18 18 18 18 18 18 18 18 18 17 17 17 17 17 16 16 16 16 16 16 16 16 16 16 16 16 15 15 15 15 15 15 15 15 15 15 15 15 15
20 20 19 20 20 20 19 18 18 18 18 18 18 18 18 18 18 18 18 17 17 17 17 17 16 16 16 16 16 16 16 16 16 16 15 15 15 15 15 15 15 15 15 15 15 15 15 15 15
20 20 20 20 20 20 19 18 18 18 18 18 18 18 18 18 18 18 18 17 17 17 17 17 16 16 16 16 16 16 16 16 16 16 15 15 15 15 15 15 15 15 15 15 15 15 15 15 15
20 21 21 21 19 18 19 17 18 17 17 17 18 18 18 18 18 18 18 17 17 17 17 17 17 16 16 16 16 16 16 16 16 15 15 15 15 15 15 15 15 15 15 15 15 15 15 15 15
20 21 21 20 19 18 18 17 17 17 17 17 18 18 19 18 18 18 18 18 18 17 17 17 17 16 16 16 16 16 16 16 16 15 15 15 15 15 15 15 15 15 15 15 15 15 15 15 15
21 20 19 17 17 17 18 17 17 17 18 18 18 19 19 19 18 18 18 18 18 17 17 17 17 17 16 16 16 16 16 16 16 16 15 15 15 15 15 15 15 15 15 15 15 15 15 15 15
20 17 17 17 16 17 18 18 18 19 19 19 19 19 19 19 19 18 18 18 18 18 17 17 17 17 16 16 16 16 16 16 16 16 16 16 15 15 15 15 15 15 15 15 15 15 15 15 15
20 18 17 17 17 17 18 18 19 20 20 20 20 20 19 19 19 19 18 18 18 18 17 17 17 17 17 16 16 16 16 16 16 16 16 16 15 15 15 15 15 15 15 15 15 15 15 15 15
20 18 18 17 18 17 18 19 19 20 19 20 20 19 19 19 19 19 19 18 18 18 18 17 17 17 17 17 16 16 16 16 16 16 15 15 15 15 15 15 15 15 15 15 15 15 15 15 15
21 19 17 17 17 17 18 18 18 19 19 19 19 19 20 19 19 19 19 18 18 18 18 17 17 17 17 17 16 16 16 16 16 16 15 15 15 15 15 15 15 15 15 15 15 15 15 15 15
20 20 18 16 17 17 17 17 19 19 19 19 19 20 20 20 19 19 19 19 18 18 18 18 17 17 17 17 17 16 16 16 16 16 16 15 15 15 15 15 15 15 15 15 15 15 15 14 14
21 20 18 17 17 17 16 17 20 19 19 20 20 20 20 20 20 19 19 19 18 18 18 18 17 17 17 17 17 16 16 16 16 16 16 16 15 15 15 15 15 15 15 15 15 14 14 14 14
Wind_Speed
2 1 3 3 4 4 2 1 1 2 3 3 7 8 7 6 4 6 2 5 7 5 6 7 9 9 10 10 11 11 11 12 12 11 11 11 11 10 10 10 10 10 10 10 9 9 9 9 9
2 1 3 4 4 3 1 1 3 2 3 4 6 7 7 6 5 5 3 6 7 7 7 7 8 9 10 10 11 11 11 11 11 11 11 10 10 10 10 10 10 9 9 9 8 8 8 8 9
1 1 3 3 3 2 2 1 3 2 3 3 5 6 5 4 4 3 4 7 7 6 7 8 9 9 9 10 10 10 10 10 10 10 10 10 9 9 9 9 9 9 9 8 8 8 8 8 8
2 3 4 4 3 0 3 3 2 3 5 5 5 6 4 3 2 5 7 8 8 5 7 9 9 9 10 10 10 10 10 10 9 9 9 9 9 9 9 9 9 9 9 9 8 8 8 7 8
3 4 4 2 1 1 1 2 3 5 3 4 6 6 3 2 6 9 9 9 8 5 6 9 9 9 10 10 10 10 10 9 9 9 9 9 9 9 9 8 9 9 9 8 8 8 8 8 8
4 4 3 1 1 1 1 2 5 6 5 5 6 5 3 3 7 7 8 8 7 5 6 8 9 10 10 9 9 9 8 8 8 8 8 8 8 8 8 8 8 8 8 8 7 7 8 8 8
3 3 2 2 2 1 1 2 4 6 5 4 5 5 3 3 5 7 7 7 5 5 5 5 7 8 9 9 8 8 7 7 7 6 6 7 7 8 7 7 7 7 7 6 7 7 7 8 8
4 4 2 1 2 1 0 2 3 5 5 4 4 7 5 5 6 7 7 6 5 4 4 4 5 6 6 6 7 6 5 5 5 5 5 6 6 6 6 7 7 6 6 6 6 6 7 7 8
4 4 2 1 2 1 1 3 2 4 6 4 3 4 6 9 8 8 7 5 4 5 3 3 4 4 4 4 4 4 3 3 3 3 4 4 3 3 4 5 6 6 6 6 6 7 7 8 8
4 3 1 2 3 3 3 3 3 4 6 4 5 6 9 10 9 8 7 6 4 4 3 3 3 4 4 3 3 2 2 2 2 2 3 3 2 2 3 4 5 5 6 6 6 7 6 6 6
3 4 2 1 2 4 3 2 2 6 3 5 8 11 10 9 8 7 6 6 5 4 4 4 3 4 3 2 3 2 2 2 2 2 2 3 3 3 2 2 2 3 4 5 6 6 5 5 5
3 1 2 2 2 3 2 2 3 3 4 6 10 12 10 9 8 8 7 5 5 5 4 4 4 3 3 3 3 3 2 2 2 2 3 4 3 2 2 1 1 2 3 4 5 5 6 6 6
3 2 2 3 4 3 4 4 4 2 4 8 10 10 9 8 7 6 6 6 5 5 4 4 4 4 3 3 1 3 2 2 3 4 5 5 3 2 2 1 1 2 4 4 4 5 6 6 6
3 4 3 2 2 2 5 3 4 3 6 9 9 9 9 9 8 6 7 6 5 4 4 4 4 4 4 3 2 2 3 4 5 5 5 5 5 3 3 2 2 3 5 5 5 5 5 5 5
4 4 2 0 2 2 4 2 2 5 7 8 8 8 8 7 8 9 9 7 6 5 4 5 5 5 5 4 3 4 4 6 5 5 7 6 6 5 4 3 3 3 6 7 6 6 5 5 5
3 3 1 3 3 3 5 2 4 5 8 7 6 6 6 6 7 8 9 7 7 6 5 4 5 6 5 4 4 4 5 5 5 6 7 7 7 7 5 4 3 5 6 5 4 4 5 5 4
2 1 2 3 3 3 4 4 5 5 7 7 7 6 6 5 6 7 8 8 7 7 6 5 5 5 5 4 4 5 5 5 5 6 6 6 7 8 6 4 4 6 5 4 3 4 4 4 4
3 2 2 3 3 3 4 4 5 6 7 7 6 6 6 7 8 8 8 8 7 6 6 6 5 5 5 4 4 4 4 3 4 4 5 6 6 7 7 5 5 6 4 4 4 4 4 3 3
3 2 1 3 3 3 4 4 5 6 5 6 6 7 8 8 7 7 8 8 7 6 6 6 5 4 4 3 3 3 2 2 2 3 5 6 6 7 6 4 4 4 4 3 3 3 4 4 3
2 1 1 2 2 3 3 3 4 6 8 8 9 8 8 7 6 7 8 7 7 7 6 6 6 5 5 4 3 2 2 1 1 2 5 5 6 6 6 5 4 4 4 4 4 3 3 2 2
1 3 3 2 1 1 1 4 3 4 4 6 7 8 8 10 10 9 8 8 7 8 8 8 6 6 5 4 3 3 3 3 3 3 2 3 5 6 6 5 4 4 4 3 3 3 4 2 2
1 2 3 2 2 2 2 2 5 4 5 7 8 8 8 10 10 10 10 9 9 8 7 7 7 6 6 6 5 5 4 2 1 1 1 2 5 6 6 6 5 4 4 4 2 3 3 3 2
4 3 1 1 2 1 1 2 6 2 5 8 9 10 10 11 13 13 12 11 9 8 8 7 7 6 6 6 6 6 4 2 1 1 2 2 3 4 6 6 5 4 3 4 4 4 4 3 2
3 4 5 5 3 1 3 4 5 4 8 8 9 10 11 12 13 12 10 9 8 7 7 8 8 6 6 6 6 6 6 4 3 2 2 1 1 2 3 5 5 4 3 3 3 3 4 3 3
4 6 3 4 3 4 3 3 6 6 7 9 10 11 11 11 12 12 11 10 9 9 8 8 9 7 6 6 6 6 6 6 5 4 4 3 2 1 1 3 3 2 3 3 3 3 3 3 3
3 7 6 3 3 4 2 2 6 6 5 6 7 8 9 11 12 12 12 11 10 10 10 9 9 8 7 7 6 5 5 4 3 4 4 4 3 2 2 3 3 3 4 4 4 3 2 2 3
4 3 6 5 1 1 3 3 6 3 0 3 5 7 9 11 12 12 11 11 11 11 10 11 10 8 8 7 6 6 5 5 5 4 3 3 3 3 3 3 3 3 4 4 4 3 2 3 3
5 5 5 3 2 1 3 3 4 4 3 4 6 8 10 10 11 11 11 11 10 10 9 9 10 9 8 7 7 6 6 6 5 5 4 4 3 3 4 3 3 2 2 3 4 3 2 4 3
2 2 4 4 4 4 2 6 6 8 6 6 7 8 9 10 11 11 10 10 9 8 8 8 8 8 7 7 6 6 6 5 5 5 5 4 3 4 4 3 3 3 2 2 3 2 3 3 3
5 5 6 4 2 3 3 6 6 7 6 6 6 6 8 10 10 10 10 9 8 9 8 8 8 8 8 8 7 7 6 6 5 5 5 5 4 4 4 3 3 3 3 2 3 2 3 3 3
Wind_Direction
192 123 91 60 54 53 46 345 60 56 59 56 68 78 80 58 72 119 167 135 128 129 121 112 111 108 107 106 101 97 94 92 90 90 89 87 86 88 89 92 89 88 86 86 86 83 81 77 73
141 114 72 59 77 76 5 337 76 60 129 126 79 73 75 69 75 105 126 128 128 127 120 115 112 110 107 105 104 100 97 95 92 92 91 89 90 90 89 92 92 92 89 88 86 84 80 73 68
152 137 88 71 81 134 159 221 136 91 88 95 80 56 67 87 96 113 139 132 122 120 120 120 113 111 109 106 107 104 101 97 94 92 91 91 91 92 92 93 92 91 90 89 88 85 78 70 68
93 53 57 72 85 206 166 186 146 104 64 60 92 74 61 52 112 133 134 130 124 122 127 127 121 118 116 114 111 105 102 99 95 93 92 92 92 93 95 93 93 92 93 91 88 86 79 73 71
75 77 60 54 74 95 156 148 108 93 76 66 87 93 69 30 113 129 133 131 129 128 130 134 128 124 123 122 117 110 104 100 96 93 91 91 92 94 97 95 97 96 95 91 86 81 75 73 75
58 69 79 87 78 73 44 103 96 93 101 99 90 102 103 121 125 136 135 131 131 134 135 138 133 132 132 130 124 115 110 104 101 96 93 92 92 93 93 95 98 99 95 90 85 78 72 73 76
107 91 105 132 113 80 109 93 103 115 112 119 118 108 128 144 140 137 129 127 121 128 133 135 139 137 137 133 129 121 118 115 109 104 102 98 93 91 92 94 97 98 96 92 87 75 70 74 73
129 101 68 77 108 80 358 73 103 114 112 110 112 133 160 175 141 125 121 122 128 131 138 143 143 141 137 135 134 128 129 130 123 115 114 106 100 96 95 96 98 97 95 91 84 74 67 71 69
98 80 102 169 150 162 128 94 62 70 89 65 66 128 150 144 126 116 112 111 129 140 153 155 150 156 160 155 144 132 129 129 116 116 118 109 95 92 98 103 101 98 92 86 80 72 69 68 64
88 113 180 201 164 149 115 110 126 93 84 80 79 95 125 136 133 131 136 143 146 158 176 177 172 176 179 164 139 128 111 95 77 83 130 137 131 135 126 106 99 96 83 74 76 73 65 56 56
109 148 163 116 139 135 120 82 83 115 109 158 153 151 148 145 146 148 155 157 163 163 156 157 166 173 164 136 124 115 92 70 54 67 113 134 118 121 112 78 67 65 62 59 61 56 53 56 65
110 109 140 145 112 122 127 113 77 105 178 175 160 155 154 155 162 165 166 167 159 147 154 158 151 138 137 132 121 115 95 64 48 51 100 110 102 98 122 124 103 66 63 66 61 65 67 70 75
99 121 103 106 85 101 102 101 106 106 140 143 144 148 157 162 167 173 172 156 140 138 144 152 136 133 132 114 97 91 80 72 70 70 79 102 104 109 125 134 76 67 82 83 77 76 75 74 71
142 125 119 115 108 105 106 104 106 153 146 143 150 161 170 171 167 160 159 156 147 139 143 137 127 128 118 108 101 87 81 72 63 58 65 93 105 106 105 91 78 80 99 98 92 88 82 76 77
114 94 61 169 147 158 113 60 180 174 152 152 164 171 175 176 167 168 169 166 158 150 141 133 124 111 107 103 93 80 80 79 67 55 62 84 94 94 95 87 77 90 101 95 87 81 80 79 73
70 73 33 268 181 184 130 201 238 175 156 168 175 176 178 182 173 169 165 164 157 145 136 131 126 111 105 96 85 81 80 77 65 59 64 74 80 88 88 86 81 91 92 91 85 76 75 69 68
29 148 213 257 214 171 148 202 228 184 172 183 185 183 184 185 173 168 167 163 159 153 144 134 123 119 111 96 88 85 82 73 66 63 63 68 75 85 90 88 90 90 85 80 89 74 86 85 71
212 210 219 231 226 156 166 211 215 195 179 182 184 188 193 195 188 171 168 165 163 158 149 141 133 127 114 94 76 63 57 47 54 56 61 69 74 83 87 89 89 90 82 70 77 80 68 82 83
178 164 224 246 212 159 193 215 217 205 184 182 183 192 203 207 190 165 164 161 160 159 151 149 145 142 127 109 102 91 72 45 34 34 54 65 76 83 90 90 84 83 87 88 91 87 73 58 63
155 149 228 278 202 168 204 240 222 204 200 193 191 198 197 192 176 171 165 162 171 170 163 158 157 150 148 146 145 138 131 108 73 30 41 60 78 84 95 92 88 89 94 81 78 90 85 49 52
215 194 199 203 85 65 105 329 267 241 219 207 201 198 193 184 179 180 175 174 177 176 174 169 168 159 155 140 110 87 65 49 36 29 25 34 75 86 89 95 97 93 99 101 94 103 107 89 30
228 231 186 166 110 269 172 284 278 234 229 222 212 201 198 184 178 179 180 179 185 187 177 167 167 161 152 137 129 130 128 131 184 173 60 43 70 84 91 95 94 94 93 97 93 96 102 107 67
204 226 199 201 149 316 275 181 285 232 233 232 218 204 199 187 180 184 186 186 187 181 173 169 163 159 152 145 144 138 135 150 139 97 84 65 52 68 85 95 94 94 93 93 87 87 87 97 103
150 56 33 41 66 325 240 181 269 232 222 220 213 203 197 187 182 186 186 181 182 176 168 166 161 164 161 151 147 147 149 146 131 123 122 97 59 37 70 95 95 97 96 92 95 95 93 92 90
84 82 36 7 5 263 246 173 254 243 225 208 203 200 193 184 181 182 181 184 180 174 172 167 163 167 168 160 157 159 160 158 159 162 155 142 128 102 87 92 99 97 102 105 100 92 91 93 92
173 141 155 190 225 277 320 240 267 263 228 197 186 184 180 181 183 185 186 185 180 177 174 169 170 172 173 166 167 164 157 157 162 165 158 157 167 177 162 121 112 108 101 102 97 87 85 87 90
155 182 174 148 193 299 306 304 318 348 61 170 174 174 183 186 186 187 186 184 181 180 180 176 173 175 177 172 167 165 164 160 159 157 150 152 163 162 144 126 116 108 100 100 98 88 82 89 85
163 155 103 117 151 259 300 282 251 258 232 191 187 193 197 189 186 185 184 185 184 184 182 175 173 177 177 172 172 170 167 163 158 149 151 152 156 146 139 127 128 120 105 103 98 89 81 85 74
163 149 135 142 158 158 241 273 232 216 211 189 194 196 193 186 185 183 183 181 175 172 171 171 174 173 173 174 170 164 167 164 155 155 162 162 153 146 145 146 140 139 131 116 106 100 94 91 74
173 181 153 155 212 168 171 266 273 206 199 185 190 190 179 176 175 174 174 172 171 172 175 176 178 179 180 175 169 171 169 162 161 166 167 162 157 153 148 145 141 149 152 146 131 122 104 110 108
Height
1519 1518 1519 1520 1522 1530 1533 1527 1522 1521 1520 1521 1520 1521 1523 1527 1530 1536 1534 1533 1534 1534 1534 1534 1534 1534 1534 1534 1533 1533 1533 1533 1532 1532 1532 1531 1531 1531 1531 1531 1531 1531 1531 1531 1531 1531 1532 1532 1532
1519 1519 1520 1520 1527 1538 1535 1526 1524 1521 1521 1521 1522 1523 1525 1528 1530 1532 1533 1534 1534 1534 1534 1534 1534 1534 1534 1534 1534 1534 1534 1533 1533 1533 1533 1532 1532 1532 1532 1531 1531 1531 1531 1532 1532 1532 1532 1532 1532
1519 1519 1521 1523 1530 1536 1532 1525 1522 1521 1521 1521 1524 1525 1528 1531 1532 1532 1533 1534 1535 1535 1535 1535 1535 1535 1535 1535 1535 1535 1535 1534 1534 1534 1534 1533 1533 1533 1533 1532 1532 1532 1532 1532 1533 1533 1533 1533 1533
1520 1521 1522 1527 1531 1528 1525 1522 1521 1521 1522 1523 1524 1528 1530 1532 1532 1533 1534 1535 1535 1535 1536 1536 1535 1536 1536 1536 1536 1536 1536 1535 1535 1535 1535 1534 1534 1534 1534 1533 1533 1533 1533 1533 1533 1534 1534 1534 1534
1520 1520 1526 1532 1529 1525 1523 1521 1521 1522 1523 1525 1525 1529 1532 1534 1533 1534 1535 1536 1536 1536 1536 1536 1536 1536 1537 1537 1537 1537 1537 1536 1536 1536 1536 1536 1535 1535 1535 1534 1534 1534 1534 1534 1534 1534 1534 1534 1535
1520 1521 1533 1537 1531 1525 1523 1522 1522 1523 1525 1527 1527 1530 1533 1534 1534 1535 1536 1537 1537 1537 1537 1537 1537 1538 1538 1538 1538 1538 1538 1538 1538 1538 1537 1537 1537 1536 1536 1535 1535 1535 1535 1535 1535 1535 1535 1535 1535
1521 1525 1532 1533 1531 1528 1524 1523 1523 1524 1525 1527 1527 1530 1533 1535 1535 1536 1537 1538 1538 1538 1538 1539 1539 1539 1539 1539 1539 1539 1539 1539 1539 1539 1539 1538 1538 1538 1537 1537 1536 1536 1536 1536 1536 1536 1536 1536 1536
1520 1525 1531 1532 1531 1529 1525 1523 1524 1524 1526 1528 1528 1529 1532 1535 1536 1537 1538 1538 1539 1539 1540 1540 1540 1541 1541 1541 1541 1541 1541 1541 1541 1541 1540 1540 1540 1539 1539 1538 1538 1538 1537 1537 1537 1537 1537 1537 1537
1520 1529 1534 1531 1529 1528 1525 1524 1525 1526 1526 1527 1528 1529 1531 1534 1536 1537 1538 1539 1540 1540 1541 1541 1542 1542 1542 1542 1542 1543 1543 1542 1542 1542 1542 1542 1541 1541 1540 1540 1540 1539 1539 1539 1539 1538 1538 1538 1538
1520 1531 1528 1525 1524 1525 1524 1524 1525 1527 1527 1529 1529 1530 1532 1534 1536 1537 1538 1539 1540 1541 1541 1542 1543 1543 1543 1544 1544 1544 1544 1544 1544 1543 1543 1543 1543 1542 1542 1542 1542 1541 1541 1540 1540 1540 1540 1539 1539
1521 1526 1524 1523 1523 1524 1525 1526 1526 1527 1529 1530 1530 1531 1532 1534 1536 1538 1539 1540 1541 1541 1542 1543 1543 1544 1544 1545 1545 1545 1545 1545 1545 1544 1544 1544 1544 1544 1544 1543 1543 1543 1542 1542 1542 1541 1541 1541 1541
1522 1523 1522 1523 1523 1524 1525 1526 1527 1527 1529 1529 1529 1530 1532 1534 1536 1538 1539 1540 1541 1542 1543 1544 1544 1545 1545 1546 1546 1546 1546 1546 1546 1545 1545 1545 1545 1545 1545 1545 1544 1544 1544 1543 1543 1543 1542 1542 1542
1522 1523 1523 1523 1524 1524 1525 1526 1527 1528 1529 1529 1531 1532 1533 1535 1536 1538 1539 1539 1541 1542 1543 1544 1545 1546 1546 1547 1547 1547 1547 1547 1547 1547 1546 1546 1546 1546 1546 1545 1545 1545 1545 1545 1544 1544 1544 1543 1543
1522 1523 1524 1524 1524 1525 1526 1527 1528 1530 1530 1530 1531 1532 1533 1535 1536 1538 1539 1540 1541 1542 1544 1545 1545 1546 1547 1547 1548 1548 1548 1548 1548 1548 1547 1547 1547 1547 1547 1546 1546 1546 1546 1546 1546 1545 1545 1545 1545
1522 1524 1526 1525 1525 1526 1527 1531 1529 1529 1530 1531 1531 1532 1533 1534 1536 1537 1538 1540 1541 1542 1544 1545 1546 1547 1547 1548 1548 1549 1549 1549 1549 1548 1548 1548 1548 1548 1548 1547 1547 1547 1547 1547 1547 1547 1546 1546 1546
1524 1528 1533 1527 1525 1525 1530 1537 1529 1529 1530 1530 1531 1532 1533 1534 1535 1537 1538 1540 1541 1542 1544 1545 1546 1547 1548 1548 1549 1549 1549 1549 1549 1549 1549 1549 1549 1549 1548 1548 1548 1548 1548 1548 1548 1548 1548 1547 1547
1530 1536 1535 1529 1524 1524 1528 1533 1529 1528 1529 1530 1530 1532 1533 1534 1535 1536 1538 1539 1541 1542 1544 1545 1546 1548 1548 1549 1549 1549 1550 1550 1550 1550 1550 1550 1549 1549 1549 1549 1549 1549 1549 1549 1549 1549 1549 1549 1549
1535 1534 1533 1531 1525 1525 1528 1530 1527 1527 1527 1528 1530 1531 1532 1533 1534 1535 1537 1539 1541 1542 1543 1545 1546 1547 1548 1549 1549 1550 1550 1550 1550 1550 1550 1550 1550 1550 1550 1550 1550 1550 1550 1550 1550 1550 1550 1550 1550
1525 1528 1531 1528 1522 1525 1528 1528 1527 1526 1527 1528 1528 1530 1531 1531 1533 1535 1537 1539 1541 1542 1543 1544 1546 1547 1548 1549 1549 1550 1550 1550 1550 1551 1551 1551 1551 1550 1551 1551 1550 1551 1551 1551 1551 1551 1551 1551 1551
1523 1529 1530 1526 1521 1524 1528 1528 1525 1525 1525 1525 1526 1527 1529 1530 1532 1534 1536 1538 1540 1541 1543 1544 1545 1547 1548 1549 1549 1550 1550 1551 1551 1551 1551 1551 1551 1551 1551 1551 1551 1551 1551 1551 1552 1552 1551 1551 1552
1524 1527 1527 1527 1524 1524 1528 1532 1527 1524 1524 1524 1525 1526 1527 1528 1530 1532 1535 1537 1539 1541 1542 1544 1545 1546 1547 1548 1549 1550 1551 1551 1551 1552 1552 1552 1552 1552 1552 1552 1552 1552 1552 1552 1552 1552 1552 1552 1553
1528 1520 1520 1523 1531 1537 1532 1545 1530 1525 1524 1522 1522 1524 1524 1526 1528 1531 1533 1535 1537 1540 1542 1543 1545 1546 1547 1548 1549 1550 1551 1551 1552 1552 1552 1552 1553 1553 1553 1553 1553 1553 1553 1553 1553 1553 1553 1553 1553
1521 1517 1519 1523 1529 1536 1534 1542 1536 1525 1525 1521 1519 1520 1521 1524 1526 1529 1531 1533 1536 1539 1541 1543 1544 1546 1547 1548 1549 1550 1551 1551 1552 1552 1552 1553 1553 1553 1553 1553 1553 1553 1553 1553 1553 1553 1553 1553 1553
1515 1520 1524 1529 1535 1546 1535 1541 1538 1527 1519 1516 1515 1516 1518 1521 1524 1527 1530 1533 1535 1538 1540 1542 1544 1545 1547 1548 1549 1550 1551 1551 1552 1552 1553 1553 1553 1554 1554 1554 1554 1554 1554 1554 1554 1554 1554 1554 1554
1518 1533 1548 1550 1553 1549 1531 1535 1531 1515 1511 1510 1511 1513 1516 1519 1522 1525 1528 1531 1533 1536 1538 1540 1542 1544 1546 1547 1548 1549 1550 1551 1552 1552 1553 1553 1554 1554 1554 1554 1554 1555 1555 1555 1555 1555 1555 1555 1555
1520 1529 1547 1555 1555 1547 1532 1534 1522 1508 1507 1507 1509 1511 1514 1517 1520 1522 1525 1528 1531 1534 1536 1538 1541 1543 1545 1546 1548 1549 1550 1551 1551 1552 1552 1553 1553 1554 1554 1555 1555 1555 1555 1555 1555 1556 1556 1556 1555
1520 1526 1527 1539 1541 1547 1540 1528 1517 1508 1508 1508 1509 1511 1513 1515 1518 1520 1524 1526 1529 1532 1534 1536 1539 1541 1543 1545 1546 1548 1549 1550 1551 1552 1552 1553 1553 1554 1554 1555 1555 1555 1556 1556 1556 1556 1556 1556 1556
1511 1517 1530 1538 1548 1553 1543 1535 1530 1515 1510 1508 1509 1510 1511 1513 1516 1518 1522 1525 1527 1530 1533 1535 1537 1540 1542 1544 1545 1547 1548 1549 1550 1551 1552 1552 1553 1554 1554 1554 1555 1555 1556 1556 1556 1557 1557 1557 1557
1515 1518 1524 1534 1538 1549 1551 1541 1513 1510 1507 1507 1507 1508 1509 1511 1513 1516 1520 1523 1526 1529 1532 1534 1536 1538 1540 1542 1544 1545 1547 1548 1549 1550 1551 1552 1553 1553 1554 1555 1555 1555 1556 1556 1557 1557 1557 1557 1557
1507 1512 1521 1534 1537 1537 1544 1537 1504 1504 1504 1504 1506 1507 1508 1510 1512 1515 1518 1522 1525 1527 1530 1532 1534 1537 1539 1541 1543 1544 1546 1547 1548 1549 1550 1551 1552 1553 1554 1554 1555 1555 1556 1556 1557 1557 1557 1557 1557